Location: Stull Observatory
(42.2506°N, 77.7903°W)
Time: 03:51:27
(UTC-04:00)

Okean O Rocket - Visible Passes

Search period start: 22 August 2014 00:00
Search period end: 01 September 2014 00:00
Orbit: 625 x 648 km, 98.0° (Epoch: 21 August)

Date Brightness Start Highest point End Pass type
(mag) Time Alt. Az. Time Alt. Az. Time Alt. Az.
22 Aug 2.0 04:05:50 10° NNE 04:10:09 58° E 04:11:26 40° SSE visible
22 Aug 3.5 05:43:46 10° NNW 05:46:05 14° WNW 05:48:24 10° W visible
23 Aug 1.5 04:28:06 10° N 04:32:29 80° WNW 04:33:55 42° SSW visible
24 Aug 3.9 03:15:19 10° NE 03:18:04 16° E 03:18:55 16° ESE visible
24 Aug 2.0 04:50:34 10° N 04:54:44 45° WNW 04:56:25 30° SW visible
25 Aug 3.2 03:36:49 10° NE 03:40:34 28° E 03:41:24 26° ESE visible
25 Aug 2.7 05:13:15 10° N 05:16:55 27° WNW 05:18:54 19° WSW visible
26 Aug 2.3 03:58:46 10° NNE 04:02:59 48° E 04:03:53 41° SE visible
26 Aug 3.3 05:36:16 10° NNW 05:39:02 17° WNW 05:41:23 11° W visible
27 Aug 1.5 04:20:58 10° NNE 04:25:20 85° ESE 04:26:22 52° S visible
28 Aug 4.1 03:08:39 10° ENE 03:10:51 14° E 03:11:22 13° E visible
28 Aug 1.7 04:43:22 10° N 04:47:37 54° WNW 04:48:52 40° SW visible
29 Aug 3.5 03:29:52 10° NE 03:33:22 23° E 03:33:51 23° ESE visible
29 Aug 2.5 05:05:58 10° N 05:09:50 32° WNW 05:11:21 25° WSW visible
30 Aug 2.6 03:51:42 10° NNE 03:55:49 40° E 03:56:20 38° ESE visible
30 Aug 3.1 05:28:51 10° NNW 05:31:58 20° WNW 05:33:50 15° W visible
31 Aug 1.7 04:13:50 10° NNE 04:18:11 71° ESE 04:18:49 60° SSE visible
31 Aug 3.6 05:52:25 10° NW 05:54:02 12° WNW 05:55:38 10° W visible
